Location: Clegg Observatory
(38.9178°N, 78.6069°W)
Time: 05:25:01
(UTC-04:00)

Cosmos 1151 Rocket - Visible Passes

Search period start: 19 August 2017 00:00
Search period end: 29 August 2017 00:00
Orbit: 592 x 617 km, 82.5° (Epoch: 18 August)

Date Brightness Start Highest point End Pass type
(mag) Time Alt. Az. Time Alt. Az. Time Alt. Az.
19 Aug 5.6 04:01:50 10° SE 04:04:41 17° E 04:07:31 10° NE visible
19 Aug 3.7 05:38:20 12° SW 05:41:56 33° WNW 05:45:51 10° NNW visible
20 Aug 4.8 04:14:48 17° SE 04:17:17 29° E 04:21:00 10° NNE visible
20 Aug 4.4 05:51:42 10° WSW 05:54:51 20° WNW 05:58:03 10° NNW visible
21 Aug 3.7 04:28:07 29° SSE 04:29:57 50° E 04:34:06 10° NNE visible
21 Aug 5.0 06:06:02 10° W 06:07:49 12° WNW 06:09:35 10° NW visible
22 Aug 2.9 04:41:22 45° S 04:42:41 89° ENE 04:46:58 10° N visible
23 Aug 5.8 03:17:43 11° E 03:18:26 11° E 03:19:50 10° ENE visible
23 Aug 3.2 04:54:35 43° WSW 04:55:27 51° W 04:59:39 10° N visible
24 Aug 5.2 03:30:54 19° E 03:30:59 20° E 03:34:03 10° NE visible
24 Aug 3.9 05:07:46 29° W 05:08:19 30° WNW 05:12:05 10° NNW visible
25 Aug 4.6 03:44:03 32° ENE 03:44:03 32° ENE 03:47:26 10° NNE visible
25 Aug 4.6 05:20:55 18° W 05:21:13 18° WNW 05:24:12 10° NNW visible
26 Aug 3.9 03:57:10 47° NE 03:57:10 47° NE 04:00:28 10° NNE visible
26 Aug 5.1 05:34:02 11° WNW 05:34:13 11° WNW 05:35:15 10° NW visible
27 Aug 3.8 04:10:15 46° N 04:10:15 46° N 04:13:18 10° N visible
28 Aug 6.1 02:46:27 11° ENE 02:46:27 11° ENE 02:46:40 10° ENE visible
28 Aug 4.2 04:23:18 32° NNW 04:23:18 32° NNW 04:25:55 10° N visible
